Weather History for KCLK - July, 2014

Change the Weather History Date:

Thursday, July 3, 2014

  Actual Average (KCSM) Record (KCSM)
Temperature  
Mean Temperature 72 °F -  
Max Temperature 84 °F 91 °F 104 °F (2011)
Min Temperature 60 °F 68 °F 62 °F (2013)
Cooling Degree Days 7    
Growing Degree Days 22 (Base 50)    
Moisture  
Dew Point 54 °F    
Average Humidity 55    
Maximum Humidity 77    
Minimum Humidity 30    
Precipitation  
Precipitation 0.00 in - - ()
Sea Level Pressure  
Sea Level Pressure 30.20 in    
Wind  
Wind Speed 8 mph (ESE)    
Max Wind Speed 16 mph    
Max Gust Speed 22 mph    
Visibility 10 miles    
Events      
Averages and records for this station are not official NWS values.
T = Trace of Precipitation, MM = Missing Value Source: NWS Daily Summary

Daily Weather History Graph

Daily Weather History Graph

Search for Another Location

Airport or City:

Trip Planner

Search our weather history database for the weather conditions in past years. The results will help you decide how hot, cold, wet, or windy it might be!

Date:

Astronomy

Jul. 03, 2014 Rise Set
Actual Time 6:24 AM CDT 8:54 PM CDT
Civil Twilight 5:55 AM CDT 9:24 PM CDT
Nautical Twilight 5:18 AM CDT 10:01 PM CDT
Astronomical Twilight 4:37 AM CDT 10:42 PM CDT
Moon 12:12 PM CDT (7/3) 12:00 AM CDT (7/3)
Length of Visible Light 15h 29m
Length of Day
14h 30m
Waxing Crescent, 33% of the Moon is Illuminated
Jul 3
Waxing Crescent
Jul 5
First Quarter
Jul 12
Full
Jul 18
Last Quarter
Jul 26
New

Hourly Weather History & Observations

Time (CDT) Temp. Heat Index Dew Point Humidity Pressure Visibility Wind Dir Wind Speed Gust Speed Precip Events Conditions
12:15 AM 64.4 °F - 53.6 °F 68% 30.21 in 10.0 mi NE 8.1 mph - N/A   Scattered Clouds
12:35 AM 64.4 °F - 53.6 °F 68% 30.21 in 10.0 mi NE 8.1 mph - N/A   Clear
12:55 AM 64.4 °F - 53.6 °F 68% 30.22 in 10.0 mi NE 6.9 mph - N/A   Clear
1:15 AM 64.4 °F - 53.6 °F 68% 30.22 in 10.0 mi NE 3.5 mph - N/A   Clear
1:35 AM 64.4 °F - 53.6 °F 68% 30.21 in 10.0 mi ENE 3.5 mph - N/A   Clear
1:55 AM 64.4 °F - 53.6 °F 68% 30.21 in 10.0 mi East 3.5 mph - N/A   Clear
2:15 AM 62.6 °F - 53.6 °F 72% 30.21 in 10.0 mi ENE 3.5 mph - N/A   Clear
2:35 AM 62.6 °F - 53.6 °F 72% 30.21 in 10.0 mi NNE 3.5 mph - N/A   Clear
2:55 AM 62.6 °F - 53.6 °F 72% 30.21 in 10.0 mi NE 3.5 mph - N/A   Clear
3:15 AM 62.6 °F - 53.6 °F 72% 30.21 in 10.0 mi ENE 3.5 mph - N/A   Clear
3:35 AM 60.8 °F - 53.6 °F 77% 30.21 in 10.0 mi NE 4.6 mph - N/A   Clear
3:55 AM 60.8 °F - 53.6 °F 77% 30.21 in 10.0 mi ENE 6.9 mph - N/A   Clear
4:15 AM 62.6 °F - 53.6 °F 72% 30.20 in 10.0 mi ENE 5.8 mph - N/A   Clear
4:35 AM 60.8 °F - 53.6 °F 77% 30.20 in 10.0 mi ENE 5.8 mph - N/A   Scattered Clouds
4:55 AM 60.8 °F - 53.6 °F 77% 30.20 in 10.0 mi NE 5.8 mph - N/A   Overcast
5:15 AM 60.8 °F - 53.6 °F 77% 30.20 in 10.0 mi NE 8.1 mph - N/A   Overcast
5:35 AM 60.8 °F - 53.6 °F 77% 30.20 in 10.0 mi ENE 5.8 mph - N/A   Overcast
5:55 AM 60.8 °F - 53.6 °F 77% 30.21 in 10.0 mi ENE 5.8 mph - N/A   Overcast
6:15 AM 62.6 °F - 53.6 °F 72% 30.21 in 10.0 mi ENE 3.5 mph - N/A   Overcast
6:35 AM 62.6 °F - 53.6 °F 72% 30.22 in 10.0 mi ENE 4.6 mph - N/A   Overcast
6:55 AM 62.6 °F - 55.4 °F 77% 30.22 in 10.0 mi East 4.6 mph - N/A   Overcast
7:15 AM 62.6 °F - 55.4 °F 77% 30.23 in 10.0 mi East 3.5 mph - N/A   Overcast
7:35 AM 62.6 °F - 55.4 °F 77% 30.23 in 10.0 mi ENE 5.8 mph - N/A   Overcast
7:55 AM 64.4 °F - 55.4 °F 73% 30.23 in 10.0 mi ENE 6.9 mph - N/A   Scattered Clouds
8:15 AM 64.4 °F - 55.4 °F 73% 30.23 in 10.0 mi ENE 8.1 mph - N/A   Clear
8:55 AM 68.0 °F - 53.6 °F 60% 30.24 in 10.0 mi East 8.1 mph - N/A   Mostly Cloudy
9:15 AM 68.0 °F - 51.8 °F 56% 30.25 in 10.0 mi ESE 6.9 mph - N/A   Overcast
9:35 AM 69.8 °F - 53.6 °F 56% 30.25 in 10.0 mi SE 6.9 mph - N/A   Overcast
9:55 AM 71.6 °F - 53.6 °F 53% 30.25 in 10.0 mi ESE 6.9 mph - N/A   Mostly Cloudy
10:15 AM 73.4 °F - 51.8 °F 47% 30.25 in 10.0 mi SE 10.4 mph - N/A   Mostly Cloudy
10:35 AM 73.4 °F - 50.0 °F 44% 30.25 in 10.0 mi SE 9.2 mph - N/A   Mostly Cloudy
10:55 AM 73.4 °F - 51.8 °F 47% 30.25 in 10.0 mi SSE 12.7 mph - N/A   Overcast
11:15 AM 73.4 °F - 51.8 °F 47% 30.25 in 10.0 mi SSE 10.4 mph - N/A   Overcast
11:35 AM 73.4 °F - 50.0 °F 44% 30.25 in 10.0 mi SSE 11.5 mph - N/A   Overcast
11:55 AM 73.4 °F - 51.8 °F 47% 30.25 in 10.0 mi SE 10.4 mph - N/A   Mostly Cloudy
12:15 PM 75.2 °F - 50.0 °F 41% 30.25 in 10.0 mi SE 11.5 mph - N/A   Overcast
12:35 PM 77.0 °F - 48.2 °F 36% 30.25 in 10.0 mi SSE 12.7 mph 18.4 mph N/A   Mostly Cloudy
12:55 PM 77.0 °F - 51.8 °F 41% 30.26 in 10.0 mi SSE 11.5 mph - N/A   Overcast
1:15 PM 77.0 °F - 51.8 °F 41% 30.25 in 10.0 mi SSE 11.5 mph - N/A   Overcast
1:35 PM 78.8 °F - 51.8 °F 39% 30.25 in 10.0 mi South 13.8 mph - N/A   Mostly Cloudy
1:55 PM 78.8 °F - 51.8 °F 39% 30.24 in 10.0 mi SSE 13.8 mph - N/A   Scattered Clouds
2:15 PM 80.6 °F - 46.4 °F 30% 30.23 in 10.0 mi SSE 15.0 mph 21.9 mph N/A   Scattered Clouds
2:35 PM 80.6 °F - 50.0 °F 34% 30.22 in 10.0 mi SSE 16.1 mph 21.9 mph N/A   Clear
2:55 PM 80.6 °F - 50.0 °F 34% 30.21 in 10.0 mi SSE 12.7 mph 18.4 mph N/A   Clear
3:15 PM 80.6 °F - 51.8 °F 37% 30.20 in 10.0 mi SE 11.5 mph 17.3 mph N/A   Clear
3:35 PM 82.4 °F - 51.8 °F 35% 30.18 in 10.0 mi SE 12.7 mph 19.6 mph N/A   Clear
3:55 PM 82.4 °F - 51.8 °F 35% 30.18 in 10.0 mi ESE 12.7 mph 17.3 mph N/A   Clear
4:15 PM 82.4 °F - 51.8 °F 35% 30.17 in 10.0 mi SE 12.7 mph 18.4 mph N/A   Clear
4:35 PM 82.4 °F 81.4 °F 53.6 °F 37% 30.16 in 10.0 mi SE 12.7 mph - N/A   Clear
4:55 PM 82.4 °F 81.4 °F 53.6 °F 37% 30.15 in 10.0 mi SE 10.4 mph - N/A   Clear
5:15 PM 82.4 °F 81.4 °F 53.6 °F 37% 30.15 in 10.0 mi SE 10.4 mph - N/A   Clear
5:35 PM 84.2 °F 83.0 °F 55.4 °F 37% 30.14 in 10.0 mi SSE 6.9 mph - N/A   Clear
5:55 PM 82.4 °F 81.4 °F 53.6 °F 37% 30.13 in 10.0 mi SE 6.9 mph - N/A   Clear
6:15 PM 84.2 °F 82.8 °F 53.6 °F 35% 30.13 in 10.0 mi SE 12.7 mph 19.6 mph N/A   Clear
6:35 PM 82.4 °F 81.4 °F 53.6 °F 37% 30.13 in 10.0 mi SE 6.9 mph 16.1 mph N/A   Clear
6:55 PM 82.4 °F 81.4 °F 53.6 °F 37% 30.13 in 10.0 mi SE 10.4 mph - N/A   Clear
7:15 PM 82.4 °F 81.7 °F 55.4 °F 39% 30.13 in 10.0 mi South 11.5 mph - N/A   Clear
7:35 PM 82.4 °F 81.7 °F 55.4 °F 39% 30.13 in 10.0 mi SSE 9.2 mph 16.1 mph N/A   Clear
7:55 PM 82.4 °F 81.7 °F 55.4 °F 39% 30.13 in 10.0 mi SSE 10.4 mph - N/A   Clear
8:15 PM 80.6 °F 80.8 °F 57.2 °F 45% 30.13 in 10.0 mi SSE 11.5 mph - N/A   Clear
8:35 PM 80.6 °F 80.8 °F 57.2 °F 45% 30.14 in 10.0 mi SSE 6.9 mph - N/A   Clear
8:55 PM 78.8 °F - 59.0 °F 51% 30.14 in 10.0 mi SE 8.1 mph - N/A   Clear
9:15 PM 77.0 °F - 57.2 °F 50% 30.15 in 10.0 mi ESE 8.1 mph - N/A   Scattered Clouds
9:35 PM 77.0 °F - 57.2 °F 50% 30.15 in 10.0 mi ESE 9.2 mph - N/A   Mostly Cloudy
9:55 PM 75.2 °F - 59.0 °F 57% 30.16 in 10.0 mi ESE 9.2 mph - N/A   Scattered Clouds
10:15 PM 75.2 °F - 59.0 °F 57% 30.17 in 10.0 mi SE 11.5 mph 16.1 mph N/A   Scattered Clouds
10:35 PM 73.4 °F - 57.2 °F 57% 30.18 in 10.0 mi SE 11.5 mph - N/A   Scattered Clouds
10:55 PM 73.4 °F - 59.0 °F 61% 30.19 in 10.0 mi SE 10.4 mph - N/A   Scattered Clouds
11:15 PM 73.4 °F - 60.8 °F 65% 30.21 in 10.0 mi SSE 11.5 mph 16.1 mph N/A   Mostly Cloudy
11:35 PM 71.6 °F - 62.6 °F 73% 30.21 in 10.0 mi SSE 10.4 mph - N/A   Scattered Clouds
11:55 PM 71.6 °F - 62.6 °F 73% 30.21 in 10.0 mi South 9.2 mph - N/A   Mostly Cloudy